Regional Weather Roundup
Issued by NWS Little Rock, AR

Home | Current Version | Previous Version | Graphics & Text | Print | Product List | Glossary On
Versions: 1 2 3 4 5 6 7 8 9 10 11 12 13 14 15 16 17 18 19 20 21 22 23 24 25 26 27 28 29 30 31 32
000
ASUS44 KLZK 060012
RWRLZK

WEATHER ROUNDUP FOR ARKANSAS
NATIONAL WEATHER SERVICE LITTLE ROCK AR
600 PM CST MON DEC 05 2016

NOTE: "FAIR" INDICATES FEW OR NO CLOUDS BELOW 12,000 FEET WITH NO
SIGNIFICANT WEATHER AND/OR OBSTRUCTIONS TO VISIBILITY.

ARZ001-003-010-029-060100-
NORTHWEST ARKANSAS

CITY           SKY/WX    TMP DP  RH WIND       PRES   REMARKS
FAYETTEVILLE   CLOUDY    46  38  73 S6        29.73F
6HR MIN TEMP:  44; 6HR MAX TEMP:  52;

FORT SMITH     CLOUDY    48  39  71 E9        29.75F
6HR MIN TEMP:  47; 6HR MAX TEMP:  50;

HARRISON       CLOUDY    41  38  89 SE9       29.77S
6HR MIN TEMP:  39; 6HR MAX TEMP:  45;

BENTONVILLE    CLOUDY    46  34  61 CALM      29.73F
6HR MIN TEMP:  45; 6HR MAX TEMP:  52;

ROGERS         CLOUDY    46  39  76 E7        29.73S
6HR MIN TEMP:  45; 6HR MAX TEMP:  50;

SILOAM SPGS    CLOUDY    46  36  66 S6        29.72F
6HR MIN TEMP:  45; 6HR MAX TEMP:  50;

HIGHFILL       CLOUDY    47  36  65 E3        29.72S
6HR MIN TEMP:  45; 6HR MAX TEMP:  51;

SPRINGDALE     MOCLDY    48  37  66 SE5       29.74F
$$

ARZ004-005-016-060100-
NORTH CENTRAL ARKANSAS

CITY           SKY/WX    TMP DP  RH WIND       PRES   REMARKS
BATESVILLE     CLOUDY    43  37  81 E7        29.82F
6HR MIN TEMP:  43; 6HR MAX TEMP:  45;

FLIPPIN        CLOUDY    43  34  70 CALM      29.78R
6HR MIN TEMP:  41; 6HR MAX TEMP:  46;

MTN HOME       CLOUDY    41  37  86 SE5       29.78S
6HR MIN TEMP:  41; 6HR MAX TEMP:  46;

$$

ARZ040-041-060100-
WEST CENTRAL ARKANSAS

CITY           SKY/WX    TMP DP  RH WIND       PRES   REMARKS
MENA           CLOUDY    48  46  93 NE7       29.74F
MOUNT IDA      CLOUDY    47  43  86 VRB3      29.74F
6HR MIN TEMP:  47; 6HR MAX TEMP:  50;

$$

ARZ009-017-025-026-028-060100-
NORTHEAST ARKANSAS

CITY           SKY/WX    TMP DP  RH WIND       PRES   REMARKS
CORNING        CLOUDY    43  39  87 NE12      29.84F
JONESBORO      CLOUDY    43  40  89 NE13      29.83F
6HR MIN TEMP:  43; 6HR MAX TEMP:  44;

WALNUT RIDGE   CLOUDY    43  37  81 NE9       29.82F
6HR MIN TEMP:  43; 6HR MAX TEMP:  43;

BLYTHEVILLE    CLOUDY    45  40  82 E7        29.84F
6HR MIN TEMP:  45; 6HR MAX TEMP:  46;

$$

ARZ022-023-033-042-044-060100-
CENTRAL ARKANSAS

CITY           SKY/WX    TMP DP  RH WIND       PRES   REMARKS
LITTLE ROCK    DRIZZLE   43  43 100 NE8       29.78F FOG
6HR MIN TEMP:  43; 6HR MAX TEMP:  45; 6HR PCP: TRACE;

N LITTLE ROCK    N/A     43  41  95 E7        29.80F
6HR MIN TEMP:  43; 6HR MAX TEMP:  45;

JACKSONVILLE   CLOUDY    45  43  93 N6        29.77F
6HR MIN TEMP:  44; 6HR MAX TEMP:  45;

SEARCY         CLOUDY    43  43 100 NE12      29.80F
6HR MIN TEMP:  43; 6HR MAX TEMP:  45; 6HR PCP: TRACE;

HOT SPRINGS    CLOUDY    45  44  97 CALM      29.78S FOG
6HR MIN TEMP:  45; 6HR MAX TEMP:  49;

RUSSELLVILLE   CLOUDY    44  42  93 SE3       29.79S FOG
6HR MIN TEMP:  44; 6HR MAX TEMP:  49;

CLINTON        CLOUDY    45  41  87 CALM      29.81R
$$

ARZ036-060100-
EAST ARKANSAS

CITY           SKY/WX    TMP DP  RH WIND       PRES   REMARKS
WEST MEMPHIS   CLOUDY    47  43  86 NE8       29.79F
6HR MIN TEMP:  44; 6HR MAX TEMP:  47;

$$

ARZ050-053-066-070-073-060100-
SOUTHWEST ARKANSAS

CITY           SKY/WX    TMP DP  RH WIND       PRES   REMARKS
ARKADELPHIA    LGT RAIN  45  45 100 NE7       29.79R FOG
6HR MIN TEMP:  45; 6HR MAX TEMP:  48; 6HR PCP: TRACE;

CAMDEN         LGT RAIN  46  45  93 NE3       29.76R VSB 1
TEXARKANA      CLOUDY    46  45  96 NE7       29.73S
6HR MIN TEMP:  46; 6HR MAX TEMP:  49; 6HR PCP:  0.01;

EL DORADO      LGT RAIN  47  46  97 NE6       29.73S
6HR MIN TEMP:  45; 6HR MAX TEMP:  47; 6HR PCP:  0.03;

DE QUEEN       CLOUDY    49  44  83 NE3       29.73S
6HR MIN TEMP:  48; 6HR MAX TEMP:  51;

$$

ARZ056-057-069-060100-
SOUTHEAST ARKANSAS

CITY           SKY/WX    TMP DP  RH WIND       PRES   REMARKS
PINE BLUFF     CLOUDY    46  44  93 N8        29.77F
6HR MIN TEMP:  45; 6HR MAX TEMP:  46; 6HR PCP: TRACE;

STUTTGART      CLOUDY    45  39  81 NE8       29.78F
6HR MIN TEMP:  45; 6HR MAX TEMP:  45;

MONTICELLO     CLOUDY    47  46  97 NE7       29.75F
6HR MIN TEMP:  46; 6HR MAX TEMP:  47; 6HR PCP:  0.03;


$$






USA.gov is the U.S. government's official web portal to all federal, state and local government web resources and services.